Simultaneous Nadir Overpasses (SNOs) Predictions

Prediction of SNOs between GOES-16 and METOP-B Satellite Orbit:

Table of predicted SNOs for the next 14.0 days since TLE Epoch: 3/25/2023
Index Date Time (GOES-16) GOES-16 Lat,Lon METOP-B Lat,Lon Distance(km) Time Diff (sec)
1 03/26/2023 02:19:22 -0.05, -75.19 0.47, -72.70 282.96 80
2 03/27/2023 14:40:52 0.05, -75.20 0.53, -77.26 235.28 80
3 03/28/2023 14:17:32 0.05, -75.21 -0.60, -72.27 334.58 80
4 03/30/2023 02:39:10 -0.05, -75.21 -0.42, -76.86 188.14 80
5 03/31/2023 02:15:49 -0.05, -75.21 0.71, -71.86 382.10 80
6 04/01/2023 14:37:19 0.05, -75.23 0.32, -76.41 134.89 80
7 04/02/2023 14:13:58 0.04, -75.24 -0.82, -71.42 435.99 80
8 04/04/2023 02:35:36 -0.05, -75.26 -0.23, -76.00 85.15 80
9 04/05/2023 02:12:15 -0.04, -75.27 0.91, -71.01 486.16 80
10 04/06/2023 14:33:44 0.04, -75.30 0.10, -75.56 29.51 80
